Location: Asheville, NC
(35.6000°N, 82.5500°W)
Time: 06:41:17
(UTC-05:00)

FO-29 - Pass Details

Date: 11 January 2018
Orbit: 800 x 1322 km, 98.5° (Epoch: 18 January)

Event Time Altitude Azimuth Distance (km) Brightness Sun altitude
Rises 06:18:02 0° 116° (ESE) 4,199 14.5 -16.4°
Reaches altitude 10° 06:22:02 10° 96° (E) 3,157 13.5 -15.6°
Maximum altitude 06:25:59 16° 63° (ENE) 2,653 12.4 -14.8°
Drops below altitude 10° 06:29:44 10° 29° (NNE) 2,971 12.2 -14.1°
Sets 06:33:17 0° 8° (N) 3,828 12.5 -13.4°
